Погода в Гумарине

Россия / Республика Карелия     62°57′49″N   33°07′01″E
темп.,
°C
ветер,
м/с
пор.,
м/с
влажн.,
%
обл.,
%
осадки,
мм/ч
давл.,
гПа
погр.,
м
13 августа, сб
сб1300:00+11зсз22815 0.0 102128
03:00+9зсз21785 0.0 102217
06:00+9з137751 0.0 102289
09:00+15сз35525 0.0 1022573
12:00+19сз353829 0.0 10231495
15:00+20зсз34355 0.0 10221711
18:00+20зсз233817 0.0 10221746
21:00+14зсз116356 0.0 102211
14 августа, вс
вс1400:00+12зюз116795 0.0 102310
03:00+13юз116199 0.0 102314
06:00+13юз1261100 0.0 102370
09:00+17юз355019 0.0 1022319
12:00+22юз35376 0.0 10211059
15:00+24юз46355 0.0 10211573
18:00+23зюз35425 0.0 10201527
21:00+17зюз116785 0.0 102111
15 августа, пн
пн1500:00+15юз117362 0.0 102111
03:00+14зюз117538 0.0 102110
06:00+14ююз117343 0.0 102217
09:00+20ююз23475 0.0 1022326
12:00+24ю23355 0.0 10221174
15:00+26ю33335 0.0 10211728
18:00+25ю244243 0.0 10211665
21:00+18ююв286679 0.0 1021150
16 августа, вт
вт1600:00+16ююв277754 0.0 1022136
03:00+16ююв2774100 0.0 1022127
06:00+16ю237758 0.0 102158
09:00+20ююв256993 0.0 1021214
12:00+26ю3546100 0.0 1020931
15:00+27ююз464197 0.0 10201969
18:00+26ююз364581 0.0 10191122
21:00+20ю236941 0.0 101941
17 августа, ср
ср1700:00+18ю237698 0.0 101959
03:00+17ююз1176100 0.0 101913
06:00+17ю237521 0.0 101949
09:00+24ю365851 0.0 1018410
12:00+28ююз474424 0.0 10181440
15:00+29ююз5741100 0.0 10172151
18:00+26ююз4652100 0.0 10171281
21:00+20ююз287465 0.0 1018165